owner,sensor,date,latitude,longitude,vertical_datum,direction_of_sea_water_velocity,sea_water_speed,upward_sea_water_velocity,qcFlag 
TABS,ioos:station:wmo:42049:1,2006-02-01T00:00:00Z,28.3507,-96.0058,2.0,258.4943795,24.16557055,-99999.0,'11111222,11111222,99999999' 
TABS,ioos:station:wmo:42049:1,2006-02-01T00:30:00Z,28.3507,-96.0058,2.0,255.9009981,24.50823943,-99999.0,'11111222,11111222,99999999' 
TABS,ioos:station:wmo:42049:1,2006-02-01T01:00:00Z,28.3507,-96.0058,2.0,252.9813816,24.42973803,-99999.0,'11111222,11111222,99999999' 
TABS,ioos:station:wmo:42049:1,2006-02-01T01:30:00Z,28.3507,-96.0058,2.0,250.9375085,24.55655717,-99999.0,'11111222,11111222,99999999' 
TABS,ioos:station:wmo:42049:1,2006-02-01T02:00:00Z,28.3507,-96.0058,2.0,247.9288475,24.88345032,-99999.0,'11111222,11111222,99999999' 
TABS,ioos:station:wmo:42049:1,2006-02-01T02:30:00Z,28.3507,-96.0058,2.0,254.7208495,23.37622938,-99999.0,'11111222,11111222,99999999' 
TABS,ioos:station:wmo:42049:1,2006-02-01T03:00:00Z,28.3507,-96.0058,2.0,251.9246703,26.17152651,-99999.0,'11111222,11111222,99999999' 
TABS,ioos:station:wmo:42049:1,2006-02-01T04:00:00Z,28.3507,-96.0058,2.0,254.9039527,25.84173756,-99999.0,'11111222,11111222,99999999' 
TABS,ioos:station:wmo:42049:1,2006-02-01T04:30:00Z,28.3507,-96.0058,2.0,249.9616819,25.88704889,-99999.0,'11111222,11111222,99999999' 
TABS,ioos:station:wmo:42049:1,2006-02-01T05:00:00Z,28.3507,-96.0058,2.0,253.466512,24.77428102,-99999.0,'11111222,11111222,99999999' 
TABS,ioos:station:wmo:42049:1,2006-02-01T05:30:00Z,28.3507,-96.0058,2.0,247.1921438,24.43013099,-99999.0,'11111222,11111222,99999999' 
TABS,ioos:station:wmo:42049:1,2006-02-01T06:00:00Z,28.3507,-96.0058,2.0,252.4399142,24.42828279,-99999.0,'11111222,11111222,99999999' 
TABS,ioos:station:wmo:42049:1,2006-02-01T07:30:00Z,28.3507,-96.0058,2.0,254.9252388,21.68624449,-99999.0,'11111222,11111222,99999999' 
TABS,ioos:station:wmo:42049:1,2006-02-01T08:00:00Z,28.3507,-96.0058,2.0,260.7323088,21.73367203,-99999.0,'11111222,11111222,99999999' 
TABS,ioos:station:wmo:42049:1,2006-02-01T08:30:00Z,28.3507,-96.0058,2.0,255.0377052,19.36657172,-99999.0,'11111222,11111222,99999999' 
TABS,ioos:station:wmo:42049:1,2006-02-01T09:00:00Z,28.3507,-96.0058,2.0,254.8366501,20.72139957,-99999.0,'11111222,11111222,99999999' 
TABS,ioos:station:wmo:42049:1,2006-02-01T09:30:00Z,28.3507,-96.0058,2.0,257.7371525,20.99909522,-99999.0,'11111222,11111222,99999999' 
TABS,ioos:station:wmo:42049:1,2006-02-01T10:00:00Z,28.3507,-96.0058,2.0,255.0405828,21.38471417,-99999.0,'11111222,11111222,99999999' 
TABS,ioos:station:wmo:42049:1,2006-02-01T11:00:00Z,28.3507,-96.0058,2.0,251.6564932,19.73263794,-99999.0,'11111222,11111222,99999999' 
TABS,ioos:station:wmo:42049:1,2006-02-01T11:30:00Z,28.3507,-96.0058,2.0,248.1507686,20.17951932,-99999.0,'11111222,11111222,99999999' 
TABS,ioos:station:wmo:42049:1,2006-02-01T12:00:00Z,28.3507,-96.0058,2.0,248.5778782,19.05647397,-99999.0,'11111222,11111222,99999999' 
TABS,ioos:station:wmo:42049:1,2006-02-01T12:30:00Z,28.3507,-96.0058,2.0,255.5959192,20.4219196,-99999.0,'11111222,11111222,99999999' 
TABS,ioos:station:wmo:42049:1,2006-02-01T13:00:00Z,28.3507,-96.0058,2.0,242.7391853,18.0553427,-99999.0,'11111222,11111222,99999999' 
TABS,ioos:station:wmo:42049:1,2006-02-01T13:30:00Z,28.3507,-96.0058,2.0,251.1568483,19.10380329,-99999.0,'11111222,11111222,99999999' 
TABS,ioos:station:wmo:42049:1,2006-02-01T14:30:00Z,28.3507,-96.0058,2.0,247.1305888,19.63326259,-99999.0,'11111222,11111222,99999999' 
TABS,ioos:station:wmo:42049:1,2006-02-01T15:00:00Z,28.3507,-96.0058,2.0,245.5493023,22.29984081,-99999.0,'11111222,11111222,99999999' 
TABS,ioos:station:wmo:42049:1,2006-02-01T15:30:00Z,28.3507,-96.0058,2.0,248.7785434,20.16754819,-99999.0,'11111222,11111222,99999999' 
TABS,ioos:station:wmo:42049:1,2006-02-01T16:00:00Z,28.3507,-96.0058,2.0,255.1886786,19.9115695,-99999.0,'11111222,11111222,99999999' 
TABS,ioos:station:wmo:42049:1,2006-02-01T16:30:00Z,28.3507,-96.0058,2.0,261.9293658,21.65444989,-99999.0,'11111222,11111222,99999999' 
TABS,ioos:station:wmo:42049:1,2006-02-01T17:00:00Z,28.3507,-96.0058,2.0,257.2124958,19.24735047,-99999.0,'11111222,11111222,99999999' 
TABS,ioos:station:wmo:42049:1,2006-02-01T18:00:00Z,28.3507,-96.0058,2.0,264.09247,20.01628587,-99999.0,'11111222,11111222,99999999' 
TABS,ioos:station:wmo:42049:1,2006-02-01T18:30:00Z,28.3507,-96.0058,2.0,271.1175444,20.00380214,-99999.0,'11111222,11111222,99999999' 
TABS,ioos:station:wmo:42049:1,2006-02-01T19:00:00Z,28.3507,-96.0058,2.0,271.8268679,20.08020169,-99999.0,'11111222,11111222,99999999' 
TABS,ioos:station:wmo:42049:1,2006-02-01T19:30:00Z,28.3507,-96.0058,2.0,277.6867578,18.99062927,-99999.0,'11111222,11111222,99999999' 
TABS,ioos:station:wmo:42049:1,2006-02-01T20:00:00Z,28.3507,-96.0058,2.0,280.6762603,18.78515371,-99999.0,'11111222,11111222,99999999' 
TABS,ioos:station:wmo:42049:1,2006-02-01T20:30:00Z,28.3507,-96.0058,2.0,280.3080999,17.93952619,-99999.0,'11111222,11111222,99999999' 
TABS,ioos:station:wmo:42049:1,2006-02-01T21:00:00Z,28.3507,-96.0058,2.0,290.2534344,15.05053155,-99999.0,'11111222,11111222,99999999' 
TABS,ioos:station:wmo:42049:1,2006-02-01T21:30:00Z,28.3507,-96.0058,2.0,291.7195977,14.24099013,-99999.0,'11111222,11111222,99999999' 
TABS,ioos:station:wmo:42049:1,2006-02-01T22:00:00Z,28.3507,-96.0058,2.0,290.0435242,13.85939753,-99999.0,'11111222,11111222,99999999' 
TABS,ioos:station:wmo:42049:1,2006-02-01T22:30:00Z,28.3507,-96.0058,2.0,292.9340214,13.06250359,-99999.0,'11111222,11111222,99999999' 
TABS,ioos:station:wmo:42049:1,2006-02-01T23:00:00Z,28.3507,-96.0058,2.0,296.6705395,12.18659099,-99999.0,'11111222,11111222,99999999' 
TABS,ioos:station:wmo:42049:1,2006-02-01T23:30:00Z,28.3507,-96.0058,2.0,303.148242,10.84487437,-99999.0,'11111222,11111222,99999999' 
TABS,ioos:station:wmo:42049:1,2006-02-02T00:00:00Z,28.3507,-96.0058,2.0,303.3645331,10.72807532,-99999.0,'11111222,11111222,99999999' 
TABS,ioos:station:wmo:42049:1,2006-02-02T00:30:00Z,28.3507,-96.0058,2.0,288.2675858,7.561038288,-99999.0,'11133222,11111222,99999999' 
TABS,ioos:station:wmo:42049:1,2006-02-02T01:00:00Z,28.3507,-96.0058,2.0,275.8482988,5.398092256,-99999.0,'11133222,11111222,99999999' 
TABS,ioos:station:wmo:42049:1,2006-02-02T01:30:00Z,28.3507,-96.0058,2.0,269.1024052,4.470548065,-99999.0,'11133222,11111222,99999999' 
TABS,ioos:station:wmo:42049:1,2006-02-02T02:00:00Z,28.3507,-96.0058,2.0,275.7369029,4.402044979,-99999.0,'11133222,11111222,99999999' 
TABS,ioos:station:wmo:42049:1,2006-02-02T02:30:00Z,28.3507,-96.0058,2.0,354.0533613,0.965194281,-99999.0,'11133222,11111222,99999999' 
TABS,ioos:station:wmo:42049:1,2006-02-02T03:00:00Z,28.3507,-96.0058,2.0,293.9069884,5.20669761,-99999.0,'11133222,11111222,99999999' 
TABS,ioos:station:wmo:42049:1,2006-02-02T03:30:00Z,28.3507,-96.0058,2.0,307.9739006,5.607040217,-99999.0,'11133222,11111222,99999999' 
TABS,ioos:station:wmo:42049:1,2006-02-02T04:00:00Z,28.3507,-96.0058,2.0,253.2283945,2.287290974,-99999.0,'11133222,11111222,99999999' 
TABS,ioos:station:wmo:42049:1,2006-02-02T04:30:00Z,28.3507,-96.0058,2.0,295.9426557,3.291686498,-99999.0,'11133222,11111222,99999999' 
TABS,ioos:station:wmo:42049:1,2006-02-02T06:00:00Z,28.3507,-96.0058,2.0,352.4578977,2.895047495,-99999.0,'11133222,11111222,99999999' 
TABS,ioos:station:wmo:42049:1,2006-02-02T06:30:00Z,28.3507,-96.0058,2.0,9.260410335,3.728592228,-99999.0,'11133222,11111222,99999999' 
TABS,ioos:station:wmo:42049:1,2006-02-02T07:00:00Z,28.3507,-96.0058,2.0,28.09087296,3.695294305,-99999.0,'11133222,11111222,99999999' 
TABS,ioos:station:wmo:42049:1,2006-02-02T08:00:00Z,28.3507,-96.0058,2.0,3.07125006,6.719650289,-99999.0,'11133222,11111222,99999999' 
TABS,ioos:station:wmo:42049:1,2006-02-02T08:30:00Z,28.3507,-96.0058,2.0,40.88192516,7.975543869,-99999.0,'11133222,11111222,99999999' 
TABS,ioos:station:wmo:42049:1,2006-02-02T09:00:00Z,28.3507,-96.0058,2.0,20.53422437,9.151447973,-99999.0,'11133222,11111222,99999999' 
TABS,ioos:station:wmo:42049:1,2006-02-02T10:00:00Z,28.3507,-96.0058,2.0,47.96196127,7.526599498,-99999.0,'11133222,11111222,99999999' 
TABS,ioos:station:wmo:42049:1,2006-02-02T11:00:00Z,28.3507,-96.0058,2.0,43.04567098,9.53734764,-99999.0,'11133222,11111222,99999999' 
TABS,ioos:station:wmo:42049:1,2006-02-02T11:30:00Z,28.3507,-96.0058,2.0,46.88311944,10.32933686,-99999.0,'11111222,11111222,99999999' 
TABS,ioos:station:wmo:42049:1,2006-02-02T12:00:00Z,28.3507,-96.0058,2.0,56.37577758,12.08137823,-99999.0,'11111222,11111222,99999999' 
TABS,ioos:station:wmo:42049:1,2006-02-02T12:30:00Z,28.3507,-96.0058,2.0,64.15773878,7.800025641,-99999.0,'11133222,11111222,99999999' 
TABS,ioos:station:wmo:42049:1,2006-02-02T13:00:00Z,28.3507,-96.0058,2.0,63.12263433,9.84331753,-99999.0,'11133222,11111222,99999999' 
TABS,ioos:station:wmo:42049:1,2006-02-02T13:30:00Z,28.3507,-96.0058,2.0,65.4131352,8.291809212,-99999.0,'11133222,11111222,99999999' 
TABS,ioos:station:wmo:42049:1,2006-02-02T14:00:00Z,28.3507,-96.0058,2.0,61.89156431,10.29411968,-99999.0,'11111222,11111222,99999999' 
TABS,ioos:station:wmo:42049:1,2006-02-02T15:00:00Z,28.3507,-96.0058,2.0,90.9843644,11.64171809,-99999.0,'11111222,11111222,99999999' 
TABS,ioos:station:wmo:42049:1,2006-02-02T16:00:00Z,28.3507,-96.0058,2.0,67.85134679,12.25426048,-99999.0,'11111222,11111222,99999999' 
TABS,ioos:station:wmo:42049:1,2006-02-02T16:30:00Z,28.3507,-96.0058,2.0,72.3258702,12.38457105,-99999.0,'11111222,11111222,99999999' 
TABS,ioos:station:wmo:42049:1,2006-02-02T17:00:00Z,28.3507,-96.0058,2.0,78.0101213,16.02970056,-99999.0,'11111222,11111222,99999999' 
TABS,ioos:station:wmo:42049:1,2006-02-02T17:30:00Z,28.3507,-96.0058,2.0,79.4079001,15.34140802,-99999.0,'11111222,11111222,99999999' 
TABS,ioos:station:wmo:42049:1,2006-02-02T18:00:00Z,28.3507,-96.0058,2.0,78.1489396,18.06506297,-99999.0,'11111222,11111222,99999999' 
TABS,ioos:station:wmo:42049:1,2006-02-02T18:30:00Z,28.3507,-96.0058,2.0,76.33592007,20.91186266,-99999.0,'11111222,11111222,99999999' 
TABS,ioos:station:wmo:42049:1,2006-02-02T19:00:00Z,28.3507,-96.0058,2.0,79.77357039,21.57270961,-99999.0,'11111222,11111222,99999999' 
TABS,ioos:station:wmo:42049:1,2006-02-02T19:30:00Z,28.3507,-96.0058,2.0,77.31312869,23.58585381,-99999.0,'11111222,11111222,99999999' 
TABS,ioos:station:wmo:42049:1,2006-02-02T20:30:00Z,28.3507,-96.0058,2.0,73.24752672,23.69567471,-99999.0,'11111222,11111222,99999999' 
TABS,ioos:station:wmo:42049:1,2006-02-02T21:00:00Z,28.3507,-96.0058,2.0,74.20507859,26.15766236,-99999.0,'11111222,11111222,99999999' 
TABS,ioos:station:wmo:42049:1,2006-02-02T21:30:00Z,28.3507,-96.0058,2.0,68.76398392,24.65411325,-99999.0,'11111222,11111222,99999999' 
TABS,ioos:station:wmo:42049:1,2006-02-02T22:00:00Z,28.3507,-96.0058,2.0,73.26048313,25.86610523,-99999.0,'11111222,11111222,99999999' 
TABS,ioos:station:wmo:42049:1,2006-02-02T22:30:00Z,28.3507,-96.0058,2.0,69.88142393,26.3689685,-99999.0,'11111222,11111222,99999999' 
TABS,ioos:station:wmo:42049:1,2006-02-02T23:00:00Z,28.3507,-96.0058,2.0,68.01436618,30.02337756,-99999.0,'11111222,11111222,99999999' 
TABS,ioos:station:wmo:42049:1,2006-02-03T00:30:00Z,28.3507,-96.0058,2.0,77.16836642,26.88131321,-99999.0,'11111222,11111222,99999999' 
TABS,ioos:station:wmo:42049:1,2006-02-03T01:00:00Z,28.3507,-96.0058,2.0,81.0445676,26.0171578,-99999.0,'11111222,11111222,99999999' 
TABS,ioos:station:wmo:42049:1,2006-02-03T01:30:00Z,28.3507,-96.0058,2.0,86.36182193,26.00240374,-99999.0,'11111222,11111222,99999999' 
TABS,ioos:station:wmo:42049:1,2006-02-03T02:30:00Z,28.3507,-96.0058,2.0,88.10529893,25.10372482,-99999.0,'11111222,11111222,99999999' 
TABS,ioos:station:wmo:42049:1,2006-02-03T03:00:00Z,28.3507,-96.0058,2.0,87.1691244,26.32212187,-99999.0,'11111222,11111222,99999999' 
TABS,ioos:station:wmo:42049:1,2006-02-03T03:30:00Z,28.3507,-96.0058,2.0,91.77795797,25.46225834,-99999.0,'11111222,11111222,99999999' 
TABS,ioos:station:wmo:42049:1,2006-02-03T04:00:00Z,28.3507,-96.0058,2.0,86.09617767,23.35418806,-99999.0,'11111222,11111222,99999999' 
TABS,ioos:station:wmo:42049:1,2006-02-03T04:30:00Z,28.3507,-96.0058,2.0,85.89828322,20.27192393,-99999.0,'11111222,11111222,99999999' 
TABS,ioos:station:wmo:42049:1,2006-02-03T05:00:00Z,28.3507,-96.0058,2.0,91.52301138,20.31717746,-99999.0,'11111222,11111222,99999999' 
TABS,ioos:station:wmo:42049:1,2006-02-03T05:30:00Z,28.3507,-96.0058,2.0,94.77365516,18.98585789,-99999.0,'11111222,11111222,99999999' 
TABS,ioos:station:wmo:42049:1,2006-02-03T06:00:00Z,28.3507,-96.0058,2.0,90.3645485,18.86038176,-99999.0,'11111222,11111222,99999999' 
TABS,ioos:station:wmo:42049:1,2006-02-03T06:30:00Z,28.3507,-96.0058,2.0,91.54815408,17.39635019,-99999.0,'11111222,11111222,99999999' 
TABS,ioos:station:wmo:42049:1,2006-02-03T07:00:00Z,28.3507,-96.0058,2.0,87.34963069,16.86804375,-99999.0,'11111222,11111222,99999999' 
TABS,ioos:station:wmo:42049:1,2006-02-03T07:30:00Z,28.3507,-96.0058,2.0,90.75294602,16.74144558,-99999.0,'11111222,11111222,99999999' 
TABS,ioos:station:wmo:42049:1,2006-02-03T08:00:00Z,28.3507,-96.0058,2.0,79.63819707,15.28934596,-99999.0,'11111222,11111222,99999999' 
TABS,ioos:station:wmo:42049:1,2006-02-03T08:30:00Z,28.3507,-96.0058,2.0,74.47397991,15.76529416,-99999.0,'11111222,11111222,99999999' 
TABS,ioos:station:wmo:42049:1,2006-02-03T09:00:00Z,28.3507,-96.0058,2.0,76.98219714,16.64784971,-99999.0,'11111222,11111222,99999999' 
TABS,ioos:station:wmo:42049:1,2006-02-03T09:30:00Z,28.3507,-96.0058,2.0,76.50060877,18.12063189,-99999.0,'11111222,11111222,99999999' 
TABS,ioos:station:wmo:42049:1,2006-02-03T10:00:00Z,28.3507,-96.0058,2.0,80.45780998,12.96944872,-99999.0,'11111222,11111222,99999999' 
TABS,ioos:station:wmo:42049:1,2006-02-03T11:00:00Z,28.3507,-96.0058,2.0,74.08115978,14.83906331,-99999.0,'11111222,11111222,99999999' 
TABS,ioos:station:wmo:42049:1,2006-02-03T11:30:00Z,28.3507,-96.0058,2.0,63.11110685,14.23950842,-99999.0,'11111222,11111222,99999999' 
TABS,ioos:station:wmo:42049:1,2006-02-03T12:30:00Z,28.3507,-96.0058,2.0,61.56152231,14.36323432,-99999.0,'11111222,11111222,99999999' 
TABS,ioos:station:wmo:42049:1,2006-02-03T13:00:00Z,28.3507,-96.0058,2.0,56.27713312,14.49986552,-99999.0,'11111222,11111222,99999999' 
TABS,ioos:station:wmo:42049:1,2006-02-03T13:30:00Z,28.3507,-96.0058,2.0,66.70089327,12.71704761,-99999.0,'11111222,11111222,99999999' 
TABS,ioos:station:wmo:42049:1,2006-02-03T14:00:00Z,28.3507,-96.0058,2.0,77.93743567,11.19723627,-99999.0,'11111222,11111222,99999999' 
TABS,ioos:station:wmo:42049:1,2006-02-03T14:30:00Z,28.3507,-96.0058,2.0,71.00260251,11.27406315,-99999.0,'11111222,11111222,99999999' 
TABS,ioos:station:wmo:42049:1,2006-02-03T15:00:00Z,28.3507,-96.0058,2.0,64.98599597,12.22682706,-99999.0,'11111222,11111222,99999999' 
TABS,ioos:station:wmo:42049:1,2006-02-03T15:30:00Z,28.3507,-96.0058,2.0,68.00892151,13.4592719,-99999.0,'11111222,11111222,99999999' 
TABS,ioos:station:wmo:42049:1,2006-02-03T16:00:00Z,28.3507,-96.0058,2.0,63.68901151,14.12314413,-99999.0,'11111222,11111222,99999999' 
TABS,ioos:station:wmo:42049:1,2006-02-03T16:30:00Z,28.3507,-96.0058,2.0,63.88751878,14.72273072,-99999.0,'11111222,11111222,99999999' 
TABS,ioos:station:wmo:42049:1,2006-02-03T17:00:00Z,28.3507,-96.0058,2.0,65.76678407,14.17946755,-99999.0,'11111222,11111222,99999999' 
TABS,ioos:station:wmo:42049:1,2006-02-03T17:30:00Z,28.3507,-96.0058,2.0,61.64411463,16.1701979,-99999.0,'11111222,11111222,99999999' 
TABS,ioos:station:wmo:42049:1,2006-02-03T18:00:00Z,28.3507,-96.0058,2.0,67.73322661,17.60264185,-99999.0,'11111222,11111222,99999999' 
TABS,ioos:station:wmo:42049:1,2006-02-03T18:30:00Z,28.3507,-96.0058,2.0,76.08807473,19.00756165,-99999.0,'11111222,11111222,99999999' 
TABS,ioos:station:wmo:42049:1,2006-02-03T19:00:00Z,28.3507,-96.0058,2.0,78.02205969,18.50285383,-99999.0,'11111222,11111222,99999999' 
TABS,ioos:station:wmo:42049:1,2006-02-03T19:30:00Z,28.3507,-96.0058,2.0,78.73345869,20.72948142,-99999.0,'11111222,11111222,99999999' 
TABS,ioos:station:wmo:42049:1,2006-02-03T20:00:00Z,28.3507,-96.0058,2.0,85.20666364,20.82282642,-99999.0,'11111222,11111222,99999999' 
TABS,ioos:station:wmo:42049:1,2006-02-03T20:30:00Z,28.3507,-96.0058,2.0,93.50013043,20.63849801,-99999.0,'11111222,11111222,99999999' 
TABS,ioos:station:wmo:42049:1,2006-02-03T21:00:00Z,28.3507,-96.0058,2.0,105.2772993,22.61932802,-99999.0,'11111222,11111222,99999999' 
TABS,ioos:station:wmo:42049:1,2006-02-03T21:30:00Z,28.3507,-96.0058,2.0,127.132196,14.41215112,-99999.0,'11111222,11111222,99999999' 
TABS,ioos:station:wmo:42049:1,2006-02-03T22:00:00Z,28.3507,-96.0058,2.0,152.6975013,17.72454231,-99999.0,'11111222,11111222,99999999' 
TABS,ioos:station:wmo:42049:1,2006-02-03T22:30:00Z,28.3507,-96.0058,2.0,162.5183346,19.57404659,-99999.0,'11111222,11111222,99999999' 
TABS,ioos:station:wmo:42049:1,2006-02-03T23:00:00Z,28.3507,-96.0058,2.0,182.710749,17.75987613,-99999.0,'11111222,11111222,99999999' 
TABS,ioos:station:wmo:42049:1,2006-02-03T23:30:00Z,28.3507,-96.0058,2.0,151.3441842,12.13651103,-99999.0,'11111222,11111222,99999999' 
TABS,ioos:station:wmo:42049:1,2006-02-04T00:00:00Z,28.3507,-96.0058,2.0,194.1754732,9.963392996,-99999.0,'11133222,11111222,99999999' 
TABS,ioos:station:wmo:42049:1,2006-02-04T00:30:00Z,28.3507,-96.0058,2.0,214.1092863,12.50050399,-99999.0,'11111222,11111222,99999999' 
TABS,ioos:station:wmo:42049:1,2006-02-04T01:00:00Z,28.3507,-96.0058,2.0,209.1845823,12.81712136,-99999.0,'11111222,11111222,99999999' 
TABS,ioos:station:wmo:42049:1,2006-02-04T01:30:00Z,28.3507,-96.0058,2.0,212.7957022,9.064904853,-99999.0,'11133222,11111222,99999999' 
TABS,ioos:station:wmo:42049:1,2006-02-04T02:00:00Z,28.3507,-96.0058,2.0,206.7508028,11.01940107,-99999.0,'11111222,11111222,99999999' 
TABS,ioos:station:wmo:42049:1,2006-02-04T02:30:00Z,28.3507,-96.0058,2.0,196.8686882,12.61271184,-99999.0,'11111222,11111222,99999999' 
TABS,ioos:station:wmo:42049:1,2006-02-04T03:00:00Z,28.3507,-96.0058,2.0,213.7859477,14.87153321,-99999.0,'11111222,11111222,99999999' 
TABS,ioos:station:wmo:42049:1,2006-02-04T03:30:00Z,28.3507,-96.0058,2.0,228.0218039,13.68032894,-99999.0,'11111222,11111222,99999999' 
TABS,ioos:station:wmo:42049:1,2006-02-04T04:00:00Z,28.3507,-96.0058,2.0,230.5426634,15.15344515,-99999.0,'11111222,11111222,99999999' 
TABS,ioos:station:wmo:42049:1,2006-02-04T04:30:00Z,28.3507,-96.0058,2.0,219.6711145,12.03037822,-99999.0,'11111222,11111222,99999999' 
TABS,ioos:station:wmo:42049:1,2006-02-04T05:00:00Z,28.3507,-96.0058,2.0,218.5695261,11.93325186,-99999.0,'11111222,11111222,99999999' 
TABS,ioos:station:wmo:42049:1,2006-02-04T05:30:00Z,28.3507,-96.0058,2.0,242.3925253,10.57387819,-99999.0,'11111222,11111222,99999999' 
TABS,ioos:station:wmo:42049:1,2006-02-04T06:00:00Z,28.3507,-96.0058,2.0,242.0246316,14.1764911,-99999.0,'11111222,11111222,99999999' 
TABS,ioos:station:wmo:42049:1,2006-02-04T06:30:00Z,28.3507,-96.0058,2.0,225.175978,16.08675542,-99999.0,'11111222,11111222,99999999' 
TABS,ioos:station:wmo:42049:1,2006-02-04T07:00:00Z,28.3507,-96.0058,2.0,244.0018551,13.55123611,-99999.0,'11111222,11111222,99999999' 
TABS,ioos:station:wmo:42049:1,2006-02-04T07:30:00Z,28.3507,-96.0058,2.0,240.9594376,11.59812485,-99999.0,'11111222,11111222,99999999' 
TABS,ioos:station:wmo:42049:1,2006-02-04T08:00:00Z,28.3507,-96.0058,2.0,231.6168464,10.98382902,-99999.0,'11111222,11111222,99999999' 
TABS,ioos:station:wmo:42049:1,2006-02-04T08:30:00Z,28.3507,-96.0058,2.0,236.7981105,10.40932755,-99999.0,'11111222,11111222,99999999' 
TABS,ioos:station:wmo:42049:1,2006-02-04T09:00:00Z,28.3507,-96.0058,2.0,251.0749789,8.51,-99999.0,'11133222,11111222,99999999' 
TABS,ioos:station:wmo:42049:1,2006-02-04T09:30:00Z,28.3507,-96.0058,2.0,260.4154707,6.186347873,-99999.0,'11133222,11111222,99999999' 
TABS,ioos:station:wmo:42049:1,2006-02-04T10:00:00Z,28.3507,-96.0058,2.0,267.3193691,10.05099498,-99999.0,'11111222,11111222,99999999' 
TABS,ioos:station:wmo:42049:1,2006-02-04T10:30:00Z,28.3507,-96.0058,2.0,259.3954623,9.074982094,-99999.0,'11133222,11111222,99999999' 
TABS,ioos:station:wmo:42049:1,2006-02-04T11:00:00Z,28.3507,-96.0058,2.0,257.6172429,8.487431885,-99999.0,'11133222,11111222,99999999' 
TABS,ioos:station:wmo:42049:1,2006-02-04T11:30:00Z,28.3507,-96.0058,2.0,279.4195008,6.538149585,-99999.0,'11133222,11111222,99999999' 
TABS,ioos:station:wmo:42049:1,2006-02-04T12:00:00Z,28.3507,-96.0058,2.0,290.6603303,8.389523228,-99999.0,'11133222,11111222,99999999' 
TABS,ioos:station:wmo:42049:1,2006-02-04T12:30:00Z,28.3507,-96.0058,2.0,324.6863529,7.14463435,-99999.0,'11133222,11111222,99999999' 
TABS,ioos:station:wmo:42049:1,2006-02-04T13:00:00Z,28.3507,-96.0058,2.0,277.4470565,4.86099784,-99999.0,'11133222,11111222,99999999' 
TABS,ioos:station:wmo:42049:1,2006-02-04T13:30:00Z,28.3507,-96.0058,2.0,286.0055039,3.953239178,-99999.0,'11133222,11111222,99999999' 
TABS,ioos:station:wmo:42049:1,2006-02-04T14:00:00Z,28.3507,-96.0058,2.0,292.7464624,3.491546935,-99999.0,'11133222,11111222,99999999' 
TABS,ioos:station:wmo:42049:1,2006-02-04T14:30:00Z,28.3507,-96.0058,2.0,339.3195674,1.614001239,-99999.0,'11133222,11111222,99999999' 
TABS,ioos:station:wmo:42049:1,2006-02-04T15:00:00Z,28.3507,-96.0058,2.0,17.7511786,3.443965737,-99999.0,'11133222,11111222,99999999' 
TABS,ioos:station:wmo:42049:1,2006-02-04T15:30:00Z,28.3507,-96.0058,2.0,51.18302094,3.413971295,-99999.0,'11133222,11111222,99999999' 
TABS,ioos:station:wmo:42049:1,2006-02-04T16:00:00Z,28.3507,-96.0058,2.0,31.10689507,4.122838828,-99999.0,'11133222,11111222,99999999' 
TABS,ioos:station:wmo:42049:1,2006-02-04T16:30:00Z,28.3507,-96.0058,2.0,36.29466212,7.568381597,-99999.0,'11133222,11111222,99999999' 
TABS,ioos:station:wmo:42049:1,2006-02-04T17:00:00Z,28.3507,-96.0058,2.0,42.53729431,5.265738315,-99999.0,'11133222,11111222,99999999' 
TABS,ioos:station:wmo:42049:1,2006-02-04T17:30:00Z,28.3507,-96.0058,2.0,63.6058722,8.997977551,-99999.0,'11133222,11111222,99999999' 
TABS,ioos:station:wmo:42049:1,2006-02-04T18:00:00Z,28.3507,-96.0058,2.0,75.29648256,8.746427842,-99999.0,'11133222,11111222,99999999' 
TABS,ioos:station:wmo:42049:1,2006-02-04T18:30:00Z,28.3507,-96.0058,2.0,65.16188203,11.42702498,-99999.0,'11111222,11111222,99999999' 
TABS,ioos:station:wmo:42049:1,2006-02-04T19:00:00Z,28.3507,-96.0058,2.0,82.35473633,14.20628382,-99999.0,'11111222,11111222,99999999' 
TABS,ioos:station:wmo:42049:1,2006-02-04T19:30:00Z,28.3507,-96.0058,2.0,76.72030625,15.06277531,-99999.0,'11111222,11111222,99999999' 
TABS,ioos:station:wmo:42049:1,2006-02-04T20:00:00Z,28.3507,-96.0058,2.0,76.39815235,13.43685975,-99999.0,'11111222,11111222,99999999' 
TABS,ioos:station:wmo:42049:1,2006-02-04T20:30:00Z,28.3507,-96.0058,2.0,65.71618632,16.29148551,-99999.0,'11111222,11111222,99999999' 
TABS,ioos:station:wmo:42049:1,2006-02-04T21:00:00Z,28.3507,-96.0058,2.0,65.26154973,15.29353131,-99999.0,'11111222,11111222,99999999' 
TABS,ioos:station:wmo:42049:1,2006-02-04T21:30:00Z,28.3507,-96.0058,2.0,76.44940151,17.4559159,-99999.0,'11111222,11111222,99999999' 
TABS,ioos:station:wmo:42049:1,2006-02-04T22:00:00Z,28.3507,-96.0058,2.0,71.81099683,19.1572545,-99999.0,'11111222,11111222,99999999' 
TABS,ioos:station:wmo:42049:1,2006-02-04T22:30:00Z,28.3507,-96.0058,2.0,71.77831474,17.8448564,-99999.0,'11111222,11111222,99999999' 
TABS,ioos:station:wmo:42049:1,2006-02-04T23:00:00Z,28.3507,-96.0058,2.0,67.98543771,16.96710052,-99999.0,'11111222,11111222,99999999' 
TABS,ioos:station:wmo:42049:1,2006-02-04T23:30:00Z,28.3507,-96.0058,2.0,70.9869352,19.43002316,-99999.0,'11111222,11111222,99999999' 
TABS,ioos:station:wmo:42049:1,2006-02-05T00:00:00Z,28.3507,-96.0058,2.0,73.20844049,21.39212004,-99999.0,'11111222,11111222,99999999' 
TABS,ioos:station:wmo:42049:1,2006-02-05T00:30:00Z,28.3507,-96.0058,2.0,73.96390339,21.68376582,-99999.0,'11111222,11111222,99999999' 
TABS,ioos:station:wmo:42049:1,2006-02-05T01:00:00Z,28.3507,-96.0058,2.0,75.44192215,19.97121178,-99999.0,'11111222,11111222,99999999' 
TABS,ioos:station:wmo:42049:1,2006-02-05T01:30:00Z,28.3507,-96.0058,2.0,72.5695857,21.46567725,-99999.0,'11111222,11111222,99999999' 